Regional Weather Roundup
Issued by NWS Sterling, VA

Home | Current Version | Previous Version | Graphics & Text | Print | Product List | Glossary On
Versions: 1 2 3 4 5 6 7 8 9 10 11 12 13 14 15 16 17 18 19 20 21 22 23 24 25 26 27 28 29 30 31 32 33 34 35 36 37 38 39 40 41 42 43 44 45 46 47 48 49 50
000
ASUS41 KLWX 300510
RWRLWX

REGIONAL WEATHER ROUNDUP
NATIONAL WEATHER SERVICE BALTIMORE MD/WASHINGTON DC
100 AM EDT MON MAY 30 2016

Note: "FAIR" indicates few or no clouds below 12,000 feet
with no significant weather and/or obstructions to visibility.
 TC=TEMPERATURE CELSIUS

 * =Non NWS site. Station does not report precipitation (e.g. rain,
    snow, etc.), thunder, or fog.

DCZ001-MDZ009-015-VAZ040>042-051-053>054-300600-
WASHINGTON METRO

CITY           SKY/WX    TMP DP  RH WIND       PRES   REMARKS
WASHINGTON NAT CLOUDY    68  65  90 NW5       30.04F
DULLES         CLOUDY    68  63  84 NW6       30.05F
ANDREWS AFB    CLOUDY    67  64  92 SE1       30.04R
FT BELVOIR     MOCLDY    68  66  94 CALM      30.04S
QUANTICO       MOCLDY    70  68  93 NW5       30.05F
COLLEGE PARK*  FAIR      64  64 100 CALM      30.03F
LEESBURG*      CLOUDY    68  68 100 CALM      30.06F
MANASSAS*      CLOUDY    66  66 100 CALM      30.05F

$$

MDZ006>007-011-014-300600-
BALTIMORE METRO

CITY           SKY/WX    TMP DP  RH WIND       PRES   REMARKS
BWI AIRPORT    CLOUDY    67  64  90 CALM      30.04S
MD SCIENCE CTR   N/A     69  66  90 MISG      30.05R
MARTIN STATE   CLOUDY    68  68 100 CALM      30.04F
ANNAPOLIS      CLOUDY    69  66  90 CALM      30.02F
FORT MEADE*    CLOUDY    64  64 100 CALM      30.06F

$$

MDZ012-015-019>023-300600-
MARYLAND EASTERN SHORE

CITY           SKY/WX    TMP DP  RH WIND       PRES   REMARKS
OCEAN CITY     CLOUDY   N/A N/A N/A VRB3      30.05F
SALISBURY      LGT RAIN  73  71  93 S7        30.04F
BAY BRIDGE AP* CLOUDY    70  68  94 NW5       30.03F
CAMBRIDGE*     CLOUDY    72  70  94 S5        30.03F
EASTON*        CLOUDY    74  74 100 SW6       30.07F

$$

MDZ017>025-300600-
SOUTHERN MARYLAND

CITY           SKY/WX    TMP DP  RH WIND       PRES   REMARKS
PATUXENT RIVER CLOUDY    72  70  93 S5        30.04S
ST INIGOES     CLOUDY    73  71  93 SE3       30.03S
LEONARDTOWN*   CLOUDY    72  70  94 CALM      30.06R

$$

MDZ003>005-300600-
NORTH CENTRAL MARYLAND

CITY           SKY/WX    TMP DP  RH WIND       PRES   REMARKS
FREDERICK*     DRIZZLE   64  64 100 CALM      30.08F
HAGERSTOWN APT LGT RAIN  66  61  84 E7        30.06F
WESTMINSTER*   CLOUDY    66  63  88 CALM      30.06F

$$

MDZ501>502-300600-
WESTERN MARYLAND

CITY           SKY/WX    TMP DP  RH WIND       PRES   REMARKS
OAKLAND*       CLOUDY    59  54  82 S7        30.13F
CUMBERLAND*    CLOUDY    64  64 100 CALM      30.10S

$$

VAZ025>031-300600-
SHENANDOAH VALLEY

CITY           SKY/WX    TMP DP  RH WIND       PRES   REMARKS
WINCHESTER*    CLOUDY    64  61  88 SW5       30.07S
FRONT ROYAL*   MOCLDY    64  63  94 SW5       30.06S
LURAY*         RAIN      63  63 100 S3        30.08S
NEW MARKET*    MOCLDY    61  60  97 CALM      30.08S
STAUNTON*      CLOUDY    60  59  97 CALM      30.12F
WAYNESBORO*    CLOUDY    59  58  96 S9        30.11F

$$

WVZ021-048>050-054>055-300600-
EASTERN WEST VIRGINIA PANHANDLE

CITY           SKY/WX    TMP DP  RH WIND       PRES   REMARKS
MARTINSBURG    LGT RAIN  66  64  93 S3        30.06S
PETERSBURG*    CLOUDY    62  61  94 CALM      30.09F

$$

VAZ036>039-050-300600-
CENTRAL FOOTHILLS

CITY           SKY/WX    TMP DP  RH WIND       PRES   REMARKS
CHARLOTTESVILL FAIR      64  59  83 W5        30.06F
CULPEPER*      FAIR      65  65  99 CALM      30.06F FOG
ORANGE*        FAIR      64  64 100 CALM      30.07S
GORDONSVILLE*  FAIR      65  65 100 CALM      30.05S
WARRENTON*     CLOUDY    66  62  85 CALM      30.04F

$$

VAZ055>057-300600-
NORTH AND CENTRAL PIEDMONT

CITY           SKY/WX    TMP DP  RH WIND       PRES   REMARKS
FREDERICKSBRG* MOCLDY    66  66 100 CALM      30.04S
STAFFORD*      MOCLDY    65  64  94 CALM      30.09R

$$

NCZ024-NYZ072-PAZ021-071-VAZ022-071-300600-
OTHER REGIONAL OBSERVATIONS

CITY           SKY/WX    TMP DP  RH WIND       PRES   REMARKS
NEW YORK CITY  CLOUDY    71  66  84 CALM      30.07F
PHILADELPHIA   RAIN      71  68  90 N3        30.04F FOG
PITTSBURGH     PTCLDY    66  60  81 N5        30.05S
ROANOKE        FAIR      61  59  93 N3        30.12S
RICHMOND       CLOUDY    68  67  96 N7        30.04S
RALEIGH        MOCLDY    66  64  93 NE5       30.03F

$$

ANZ530>537-300600-
MARINE OBSERVATIONS

STATION/POSITION TIME  TEMP    WIND        PRES
                       AIR SEA DIR/SP/G
                 (UTC) (F)     (DEG/KT/KT) (MB)
THOMAS PT LIGHT  0500   69 68  330/  4/  4 1018.3F
BALT KEY BRIDGE  0400   70     290/  4/  5 1017.3
COVE POINT       0400   70     200/  7/  9 1017.9
LEWISETTA        0400   73 73  230/  4/  6 1016.7
SOLOMONS ISLAND  0400   72 66  180/  4/  5   N/A
PINEY POINT      0400          200/  3/  4   N/A

$$




USA.gov is the U.S. government's official web portal to all federal, state and local government web resources and services.